FW9985 Weather Reports


time (UTC)temp
F
wind
direction
speed
knots
gust
knots
rain 1hr
in
rain 24hr
in
rain mn
in
humidity
%
barometer
mb
20260508054530 45 248 0.9 2.6 0.00 0.00 0.00 66 1013.7
20260508053028 44 248 0.0 2.6 0.00 0.00 0.00 70 1013.9
20260508051528 44 254 1.7 5.2 0.00 0.00 0.00 71 1014.0
20260508050034 43 298 0.9 2.6 0.00 0.00 0.00 73 1014.0
20260508044528 42 0 0.0 0.0 0.00 0.00 0.00 76 1013.9
20260508043032 42 0 0.0 0.0 0.00 0.00 0.00 77 1013.8
20260508041533 43 0 0.0 2.6 0.00 0.00 0.00 73 1013.6
20260508040033 42 298 0.9 2.6 0.00 0.00 0.00 73 1013.6
20260508034533 41 298 0.9 1.7 0.00 0.00 0.00 76 1013.6
20260508033031 41 298 0.9 2.6 0.00 0.00 0.00 77 1013.6
20260508031530 42 0 0.0 0.0 0.00 0.00 0.00 75 1013.7
20260508030034 42 0 0.0 0.0 0.00 0.00 0.00 75 1013.8
20260508024531 42 0 0.0 0.0 0.00 0.00 0.00 73 1013.7
20260508023035 43 0 0.0 0.0 0.00 0.00 0.00 69 1013.8
20260508021534 45 0 0.0 0.9 0.00 0.00 0.00 67 1013.6
20260508020031 46 0 0.0 0.0 0.00 0.00 0.00 62 1013.5
20260508014534 47 0 0.0 0.9 0.00 0.00 0.00 58 1013.5
20260508013031 48 0 0.0 0.9 0.00 0.00 0.00 55 1013.3
20260508011544 49 0 0.0 1.7 0.00 0.00 0.00 52 1013.2
20260508010033 49 298 0.9 3.5 0.00 0.00 0.00 51 1013.0
20260508004535 50 0 0.0 7.0 0.00 0.00 0.00 52 1013.1
20260508003036 51 332 3.5 6.1 0.00 0.00 0.00 49 1012.9
20260508001533 52 306 4.3 7.8 0.00 0.00 0.00 48 1012.7
20260508000031 52 319 2.6 10.4 0.00 0.00 0.00 47 1012.3
20260507234530 53 313 5.2 12.2 0.00 0.00 0.00 44 1012.3
20260507233032 53 18 4.3 10.4 0.00 0.00 0.00 45 1012.3
20260507231529 55 310 7.8 13.0 0.00 0.00 0.00 44 1012.2
20260507230029 55 271 4.3 15.6 0.00 0.00 0.00 45 1012.1
20260507224528 55 319 9.6 21.7 0.00 0.00 0.00 44 1012.2
20260507223032 56 290 5.2 13.0 0.00 0.00 0.00 47 1012.0
20260507221530 55 351 8.7 16.5 0.00 0.00 0.00 45 1011.9
20260507220031 56 9 8.7 20.0 0.00 0.00 0.00 44 1011.6
20260507214531 57 285 7.0 16.5 0.00 0.00 0.00 44 1011.2
20260507213033 58 305 7.8 18.2 0.00 0.00 0.00 42 1011.1
20260507211528 59 342 6.1 13.0 0.00 0.00 0.00 42 1010.8
20260507210031 59 341 6.1 15.6 0.00 0.00 0.00 40 1010.8
20260507204530 58 11 4.3 12.2 0.00 0.00 0.00 42 1010.8
20260507203030 59 298 7.0 11.3 0.00 0.00 0.00 41 1010.7
20260507201531 57 5 7.0 13.9 0.00 0.00 0.00 44 1011.0
20260507200037 58 276 7.0 15.6 0.00 0.00 0.00 42 1011.0
20260507194530 58 300 5.2 10.4 0.00 0.00 0.00 42 1011.1
20260507193033 58 339 5.2 14.8 0.00 0.00 0.00 42 1011.2
20260507191531 58 280 6.1 15.6 0.00 0.00 0.00 40 1011.2
20260507190037 59 304 6.1 13.0 0.00 0.00 0.00 41 1011.1
20260507184536 59 325 9.6 16.5 0.00 0.00 0.00 40 1011.1
20260507183030 59 285 6.1 12.2 0.00 0.00 0.00 40 1011.2
20260507181532 59 315 7.8 13.0 0.00 0.00 0.00 38 1011.3
20260507180034 57 281 6.1 13.0 0.00 0.00 0.00 44 1011.4
20260507174537 57 309 6.1 14.8 0.00 0.00 0.00 38 1011.7
20260507173032 58 290 5.2 15.6 0.00 0.00 0.00 41 1011.7
20260507171531 57 239 7.0 13.9 0.00 0.00 0.00 39 1011.8
20260507170028 57 325 5.2 14.8 0.00 0.00 0.00 43 1011.9
20260507164530 57 244 5.2 12.2 0.00 0.00 0.00 44 1012.2
20260507163030 56 273 4.3 15.6 0.00 0.00 0.00 44 1012.2
20260507161530 56 257 7.8 12.2 0.00 0.00 0.00 45 1012.1
20260507160030 56 281 7.8 13.0 0.00 0.00 0.00 45 1012.2
20260507154537 54 262 6.1 13.9 0.00 0.00 0.00 47 1012.4
20260507153033 54 307 4.3 12.2 0.00 0.00 0.00 48 1012.3
20260507151531 54 316 7.0 13.0 0.00 0.00 0.00 49 1012.5
20260507150032 53 296 3.5 13.0 0.00 0.00 0.00 55 1012.7
20260507144531 53 312 4.3 10.4 0.00 0.00 0.00 55 1012.9
20260507143029 54 305 3.5 11.3 0.00 0.00 0.00 55 1012.9
20260507141530 52 303 6.1 13.0 0.00 0.00 0.00 58 1013.2
20260507140029 52 288 5.2 9.6 0.00 0.00 0.00 62 1013.3
20260507134530 51 277 3.5 13.0 0.00 0.00 0.00 66 1013.4
20260507133032 51 298 2.6 10.4 0.00 0.00 0.00 67 1013.4
20260507131529 50 298 5.2 8.7 0.00 0.00 0.00 70 1013.5
20260507130031 49 310 4.3 10.4 0.00 0.00 0.00 70 1013.4
20260507124530 48 273 1.7 7.0 0.00 0.05 0.00 74 1013.4
20260507123033 47 227 3.5 6.1 0.00 0.05 0.00 76 1013.7
20260507121537 46 221 2.6 4.3 0.00 0.05 0.00 79 1013.5
20260507120029 44 223 2.6 5.2 0.00 0.05 0.00 81 1013.4
20260507114529 42 219 1.7 3.5 0.00 0.10 0.00 87 1013.5
20260507113034 39 176 1.7 3.5 0.00 0.10 0.00 91 1013.4
20260507111527 37 0 0.0 0.0 0.00 0.10 0.00 92 1013.4
20260507110029 36 0 0.0 0.9 0.00 0.10 0.00 93 1013.2
20260507104531 35 0 0.0 1.7 0.00 0.12 0.00 93 1013.2
20260507103032 35 224 0.9 1.7 0.00 0.12 0.00 93 1013.2
20260507101535 35 224 0.9 2.6 0.00 0.12 0.00 94 1013.1
20260507100034 34 224 0.9 2.6 0.00 0.12 0.00 94 1013.0
20260507094530 35 0 0.0 0.0 0.00 0.21 0.00 94 1013.0
20260507093036 35 0 0.0 0.0 0.00 0.21 0.00 93 1013.0
20260507091529 35 0 0.0 0.0 0.00 0.21 0.00 93 1013.0
20260507090032 36 0 0.0 0.0 0.00 0.21 0.00 93 1013.1
20260507084528 36 0 0.0 0.0 0.00 0.32 0.00 93 1013.2
20260507083037 36 0 0.0 0.0 0.00 0.32 0.00 92 1013.2
20260507081530 37 0 0.0 0.0 0.00 0.32 0.00 92 1013.2
20260507080031 37 0 0.0 0.0 0.00 0.32 0.00 92 1013.2
20260507074530 38 0 0.0 0.0 0.00 0.45 0.00 92 1013.2
20260507073028 38 0 0.0 0.9 0.00 0.45 0.00 92 1013.3
20260507071535 38 224 1.7 2.6 0.00 0.45 0.00 92 1013.3
20260507070031 38 224 1.7 2.6 0.00 0.45 0.00 91 1013.3
20260507064529 39 224 0.9 2.6 0.00 0.46 0.00 91 1013.4
20260507063035 40 0 0.0 2.6 0.00 0.46 0.00 90 1013.4
20260507061530 40 0 0.0 0.0 0.00 0.46 0.00 89 1013.5
20260507060028 41 0 0.0 0.0 0.00 0.46 0.00 87 1013.8